MUOS-1

Last updated on Sun Jun 21 2026 00:03:05 GMT+0000 (Coordinated Universal Time)

1 38093U 12009A 26171.16591631 -.00000134 00000+0 00000+0 0 9991 2 38093 5.4817 47.1497 0058422 2.0238 178.9110 1.00269886 52473
UTC large
Height (km)
Speed (km/s)
/
Latitude / Longitude
Inclination (degrees)
Orbital Period (minutes)
Azimuth
Elevation
Range (km)
Doppler Factor

Next 0 passes for location: London (51.5072 / 0.1276)

No passes found over London.
MUOS-1